User: anonymous   Login
Location: Alfortville
(48.8058°N, 2.4204°E)
Time: 17:51:52
(UTC+00:00)
Language:

Cosmos 2346 Rocket - Orbit

View from above orbital plane
View from above orbital plane
View from above satellite
View from above satellite

Ground track
Ground track

The orbit data is extracted from the following two-line orbital elements,

1 24955U 97052C   22021.87035240  .00000075  00000-0  55038-4 0  9991
2 24955  82.9200  89.8139 0031134  78.1824 282.2825 13.81577993226448
Epoch (UTC): 21 January 2022 20:53:18
Eccentricity: 0.0031134
inclination: 82.9200°
perigee height: 935 km
apogee height: 981 km
right ascension of ascending node: 89.8139°
argument of perigee: 78.1824°
revolutions per day: 13.81577993
mean anomaly at epoch: 282.2825°
orbit number at epoch: 22644

The dashed part of the orbit path shows where the satellite is in the earth's shadow,  

DLR